Location: *
(37.4917°N, 71.5558°E)
Time: 07:37:21
(UTC+00:00)

Cosmos 1908 - Pass Details

Date: 09 April 2020
Orbit: 511 x 531 km, 82.5° (Epoch: 03 June)

Event Time Altitude Azimuth Distance (km) Brightness Sun altitude
Rises 14:17:38 0° 170° (S) 2,627 6.5 -7.3°
Reaches altitude 10° 14:19:49 10° 163° (SSE) 1,748 5.6 -7.8°
Maximum altitude 14:23:26 40° 92° (E) 777 3.6 -8.4°
Drops below altitude 10° 14:27:05 10° 23° (NNE) 1,773 5.9 -9.1°
Sets 14:29:19 0° 16° (NNE) 2,670 6.9 -9.6°
